St. Joseph, KS

12:20 PM CST on December 15, 2017 (GMT -0600)
Rosecrans Memorial

Weather History for KSTJ - October, 2011

Change the Weather History Date:

Friday, October 21, 2011

  Actual Average Record
Temperature  
Mean Temperature 48 °F 53 °F  
Max Temperature 69 °F 65 °F 88 °F (1979)
Min Temperature 26 °F 41 °F 20 °F (1982)
Degree Days  
Heating Degree Days 17 12  
Month to date heating degree days 158 194  
Since 1 July heating degree days 211 274  
Cooling Degree Days 0 0  
Month to date cooling degree days 32 18  
Year to date cooling degree days 491 1217  
Moisture  
Dew Point 32 °F    
Average Humidity 64    
Maximum Humidity 100    
Minimum Humidity 28    
Precipitation  
Precipitation 0.00 in 0.09 in 1.88 in (2017)
Month to date precipitation 0.12 1.95  
Year to date precipitation 13.95 31.67  
Sea Level Pressure  
Sea Level Pressure 30.13 in    
Wind  
Wind Speed 3 mph (SSW)    
Max Wind Speed 15 mph    
Max Gust Speed 18 mph    
Visibility 7 miles    
Events Fog    
T = Trace of Precipitation, MM = Missing Value Source: NWS Daily Summary

Daily Weather History Graph

Daily Weather History Graph

Search for Another Location

Airport or City:

Trip Planner

Search our weather history database for the weather conditions in past years. The results will help you decide how hot, cold, wet, or windy it might be!

Date:

Astronomy

Oct. 21, 2011 Rise Set
Actual Time 7:35 AM CDT 6:31 PM CDT
Civil Twilight 7:08 AM CDT 6:59 PM CDT
Nautical Twilight 6:37 AM CDT 7:30 PM CDT
Astronomical Twilight 6:05 AM CDT 8:02 PM CDT
Moon 1:27 AM CDT (10/21) 3:16 PM CDT (10/21)
Length of Visible Light 11h 50m
Length of Day
10h 56m
Waning Crescent, 33% of the Moon is Illuminated
Oct 21
Waning Crescent
Oct 26
New
Nov 2
First Quarter
Nov 10
Full
Nov 18
Last Quarter

Hourly Weather History & Observations

Time (CDT) Temp. Windchill Dew Point Humidity Pressure Visibility Wind Dir Wind Speed Gust Speed Precip Events Conditions
12:53 AM 35.1 °F - 33.1 °F 92% 30.12 in 10.0 mi Calm Calm - N/A   Clear
1:53 AM 28.9 °F - 27.0 °F 92% 30.13 in 10.0 mi Calm Calm - N/A   Clear
2:53 AM 28.9 °F - 27.0 °F 92% 30.14 in 10.0 mi Calm Calm - N/A   Clear
3:53 AM 28.0 °F - 27.0 °F 96% 30.14 in 7.0 mi Calm Calm - N/A   Clear
4:04 AM 28.4 °F - 26.6 °F 93% 30.13 in 10.0 mi Calm Calm - N/A   Partly Cloudy
4:53 AM 28.9 °F - 28.9 °F 100% 30.15 in 10.0 mi Calm Calm - N/A   Clear
5:53 AM 27.0 °F - 25.0 °F 92% 30.16 in 9.0 mi Calm Calm - N/A   Clear
6:13 AM 26.6 °F - 26.6 °F 100% 30.15 in 10.0 mi Calm Calm - N/A   Partly Cloudy
6:46 AM 28.4 °F 24.6 °F 26.6 °F 93% 30.15 in 1.0 mi SW 3.5 mph - N/A   Mist
6:49 AM 28.4 °F - 26.6 °F 93% 30.16 in 0.5 mi Calm Calm - N/A Fog Light Freezing Fog
6:53 AM 28.0 °F - 27.0 °F 96% 30.17 in 0.5 mi Calm Calm - N/A Fog Light Freezing Fog
6:56 AM 28.4 °F - 26.6 °F 93% 30.15 in 1.0 mi Calm Calm - N/A   Mist
7:00 AM 28.4 °F - 26.6 °F 93% 30.15 in 3.0 mi Calm Calm - N/A   Mist
7:07 AM 28.4 °F - 26.6 °F 93% 30.15 in 1.2 mi Calm Calm - N/A   Mist
7:09 AM 28.4 °F - 28.4 °F 100% 30.15 in 0.5 mi Calm Calm - N/A Fog Light Freezing Fog
7:16 AM 28.4 °F - 28.4 °F 100% 30.15 in 0.2 mi Calm Calm - N/A Fog Light Freezing Fog
7:45 AM 30.2 °F - 30.2 °F 100% 30.16 in 1.2 mi Calm Calm - N/A   Scattered Clouds
7:47 AM 30.2 °F - 30.2 °F 100% 30.16 in 3.0 mi Calm Calm - N/A   Scattered Clouds
7:53 AM 30.9 °F - 30.0 °F 96% 30.18 in 8.0 mi Calm Calm - N/A   Scattered Clouds
8:53 AM 33.1 °F 30.0 °F 33.1 °F 100% 30.20 in 8.0 mi South 3.5 mph - N/A   Clear
9:53 AM 41.0 °F 38.0 °F 36.0 °F 82% 30.19 in 10.0 mi SSW 4.6 mph - N/A   Clear
10:53 AM 50.0 °F - 35.1 °F 57% 30.17 in 10.0 mi SSW 6.9 mph - N/A   Clear
11:53 AM 57.9 °F - 35.1 °F 42% 30.16 in 10.0 mi WSW 10.4 mph - N/A   Clear
12:53 PM 62.1 °F - 33.1 °F 34% 30.12 in 10.0 mi SSW 9.2 mph - N/A   Clear
1:53 PM 64.9 °F - 34.0 °F 32% 30.09 in 10.0 mi SW 12.7 mph - N/A   Clear
2:53 PM 68.0 °F - 35.1 °F 30% 30.06 in 10.0 mi SSW 10.4 mph - N/A   Clear
3:53 PM 68.0 °F - 35.1 °F 30% 30.06 in 10.0 mi SSW 10.4 mph - N/A   Clear
4:53 PM 69.1 °F - 36.0 °F 30% 30.05 in 10.0 mi SSW 10.4 mph - N/A   Clear
5:53 PM 64.9 °F - 37.9 °F 37% 30.06 in 10.0 mi SSW 3.5 mph - N/A   Clear
6:53 PM 55.0 °F - 37.0 °F 51% 30.07 in 10.0 mi Calm Calm - N/A   Clear
7:53 PM 50.0 °F - 37.9 °F 63% 30.08 in 10.0 mi Calm Calm - N/A   Clear
8:53 PM 46.0 °F - 37.0 °F 71% 30.09 in 10.0 mi Calm Calm - N/A   Clear
9:53 PM 45.0 °F - 39.9 °F 82% 30.08 in 10.0 mi Calm Calm - N/A   Clear
10:53 PM 43.0 °F - 37.9 °F 82% 30.09 in 9.0 mi Calm Calm - N/A   Clear
11:53 PM 44.1 °F - 39.0 °F 82% 30.09 in 9.0 mi Calm Calm - N/A   Clear